Station NTKM3 - 8449130 - Nantucket Island, MA Image indicating link to RSS feed of recent meteorological observations for station NTKM3


Conditions at NTKM3 as of
(8:00 pm EDT on 09/01/2026)
0000 GMT on 09/02/2026:
     

Click on the graph icon in the table below to see a time series plot of the last five days of that observation.

5-day plot - Wind Direction Wind Direction (WDIR): E ( 80 deg true )
5-day plot - Wind Speed Wind Speed (WSPD): 8.0 kts
5-day plot - Wind Gust Wind Gust (GST): 8.9 kts
5-day plot - Atmospheric Pressure Atmospheric Pressure (PRES):30.06 in
5-day plot - Pressure Tendency Pressure Tendency (PTDY):+0.00 in ( Steady )
5-day plot - Air Temperature Air Temperature (ATMP): 62.1 °F
5-day plot - Water Temperature Water Temperature (WTMP): 73.4 °F
5-day plot -  Wind Speed, Wind Gust and Atmospheric Pressure Combined plot of Wind Speed, Gust, and Air Pressure
NOS Water Level Observation Network Water Level
Previous observations
TIME
(EDT)
5-day plot - Wind Direction
WDIR
 
5-day plot - Wind Speed
WSPD
kts
5-day plot - Wind Gust
GST
kts
5-day plot - Wave Height
WVHT
ft
5-day plot - Dominant Wave Period
DPD
sec
5-day plot - Average Wave Period
APD
sec
5-day plot - Mean Wave Direction
MWD
 
5-day plot - Atmospheric Pressure
PRES
in
5-day plot - Pressure Tendency
PTDY
in
5-day plot - Air Temperature
ATMP
°F
5-day plot - Water Temperature
WTMP
°F
5-day plot - Dew Point
DEWP
°F
5-day plot - Salinity
SAL
psu
5-day plot - Visibility
VIS
nmi
5-day plot - Tide (above MLLW)
TIDE
ft
2026-09-01 07:54 pm E 7.0 8.0----30.06- 62.2 73.4----
2026-09-01 07:48 pm E 6.0 8.9----30.07-- 73.4----
2026-09-01 07:42 pm E 7.0 9.9----30.06-- 73.4----
2026-09-01 07:36 pm E 7.0 9.9----30.06-- 73.6----
2026-09-01 07:30 pm E 7.0 8.9----30.06- 62.1 73.6----
2026-09-01 07:24 pmENE 6.0 8.0----30.07- 62.1 73.6----
2026-09-01 07:18 pm E 7.0 8.0----30.07-- 73.6----
2026-09-01 07:12 pm E 7.0 8.0----30.07-- 73.6----
2026-09-01 07:06 pm E 6.0 7.0----30.07-- 73.6----
2026-09-01 07:00 pm E 4.1 5.1----30.07+0.02 62.4 73.6----
2026-09-01 06:54 pm SE 2.9 4.1----30.06- 62.1 73.6----
2026-09-01 06:48 pmSSE 2.9 4.1----30.06- 62.2 73.6----
2026-09-01 06:42 pmSSE 2.9 5.1----30.06- 62.2 73.6----
2026-09-01 06:36 pm SE 4.1 6.0----30.06- 62.1 73.6----
2026-09-01 06:30 pmSSE 2.9 5.1----30.06- 61.9 73.6----
2026-09-01 06:24 pm SE 2.9 6.0----30.06- 61.9 73.6----
2026-09-01 06:18 pmSSE 4.1 6.0----30.06-- 73.6----
2026-09-01 06:12 pmSSE 2.9 5.1----30.06-- 73.6----
2026-09-01 06:06 pmSSE 2.9 6.0----30.06-- 73.6----
2026-09-01 06:00 pmSSE 1.9 5.1----30.06+0.01 61.9 73.6----
2026-09-01 05:54 pm E 2.9 5.1----30.06- 62.2 73.6----
2026-09-01 05:48 pm E 5.1 6.0----30.07- 62.1 73.6----
2026-09-01 05:42 pm E 4.1 5.1----30.07- 61.9 73.6----
2026-09-01 05:36 pm E 5.1 6.0----30.07- 61.9 73.6----
2026-09-01 05:30 pm E 6.0 7.0----30.07- 61.9 73.6----
2026-09-01 05:24 pm E 5.1 7.0----30.07- 62.1 73.8----
2026-09-01 05:18 pm E 5.1 7.0----30.07-- 73.8----
2026-09-01 05:12 pm E 5.1 7.0----30.06-- 73.8----
2026-09-01 05:06 pm E 5.1 8.0----30.06-- 73.8----
2026-09-01 05:00 pm E 6.0 6.0----30.06+0.00 62.1 73.8----
2026-09-01 04:54 pmESE 5.1 6.0----30.06- 62.4 73.8----
2026-09-01 04:48 pmESE 2.9 7.0----30.06- 62.6 73.8----
2026-09-01 04:42 pmESE 5.1 8.9----30.05- 62.2 73.8----
2026-09-01 04:36 pmESE 5.1 7.0----30.06- 62.4 73.8----
2026-09-01 04:30 pmESE 5.1 8.0----30.06- 62.4 73.8----
2026-09-01 04:24 pmESE 5.1 7.0----30.06- 62.6 73.8----
2026-09-01 04:18 pm SE 5.1 8.0----30.05-- 73.8----
2026-09-01 04:12 pm SE 7.0 8.9----30.05-- 73.8----
2026-09-01 04:06 pm SE 4.1 8.0----30.06-- 73.8----
2026-09-01 04:00 pmESE 5.1 8.0----30.05+0.00 62.4 73.8----
2026-09-01 03:54 pm SE 6.0 8.9----30.05- 62.4 73.8----
2026-09-01 03:48 pmESE 6.0 9.9----30.05- 62.6 73.8----
2026-09-01 03:42 pmESE 6.0 9.9----30.05- 62.4 73.8----
2026-09-01 03:36 pmESE 7.0 8.9----30.05- 62.8 73.8----
2026-09-01 03:30 pm SE 6.0 11.1----30.05- 62.8 73.8----
2026-09-01 03:24 pm SE 7.0 8.0----30.05- 62.6 73.8----
2026-09-01 03:18 pm SE 4.1 8.0----30.05-- 73.8----
2026-09-01 03:12 pmSSE 5.1 8.9----30.05-- 73.8----
2026-09-01 03:06 pmSSE 5.1 8.9----30.05-- 73.8----
2026-09-01 03:00 pmSSE 5.1 9.9----30.05-0.01 62.8 73.8----
2026-09-01 02:54 pm S 6.0 11.1----30.05- 62.6 73.8----
2026-09-01 02:48 pm S 7.0 8.9----30.06- 62.4 73.8----
2026-09-01 02:42 pmSSE 6.0 11.1----30.06- 62.8 73.9----
2026-09-01 02:36 pm S 4.1 8.9----30.06- 63.0 73.9----
2026-09-01 02:30 pm S 6.0 8.9----30.07- 62.6 73.8----
2026-09-01 02:24 pm S 6.0 9.9----30.06- 63.0 73.8----
2026-09-01 02:18 pm S 7.0 9.9----30.06-- 73.8----
2026-09-01 02:12 pm S 6.0 9.9----30.06-- 73.8----
2026-09-01 02:06 pmSSW 5.1 8.9----30.06-- 73.8----
2026-09-01 02:00 pm S 5.1 12.0----30.06-0.01 64.4 73.9----
2026-09-01 01:54 pm S 7.0 11.1----30.06- 64.2 73.9----
2026-09-01 01:48 pm S 6.0 11.1----30.05- 65.1 73.9----
2026-09-01 01:42 pmSSW 6.0 13.0----30.05- 65.7 73.9----
2026-09-01 01:36 pm S 11.1 14.0----30.05- 66.0 73.9----
2026-09-01 01:30 pm S 8.0 12.0----30.05- 67.3 73.9----
2026-09-01 01:24 pm S 4.1 8.9----30.05- 67.8 73.9----
2026-09-01 01:18 pm S 6.0 11.1----30.05-- 73.9----
2026-09-01 01:12 pmSSE 5.1 8.9----30.04-- 73.9----
2026-09-01 01:06 pm S 5.1 9.9----30.05-- 73.9----
2026-09-01 01:00 pm S 4.1 8.9----30.04-0.02 68.0 73.9----
2026-09-01 12:54 pm S 6.0 9.9----30.05- 68.0 73.9----
2026-09-01 12:48 pm S 4.1 9.9----30.05-- 73.9----
2026-09-01 12:42 pm S 6.0 11.1----30.05-- 73.9----
2026-09-01 12:36 pmSSE 6.0 11.1----30.05-- 73.9----
2026-09-01 12:30 pm S 5.1 8.9----30.05- 68.5 73.9----
2026-09-01 12:24 pmSSE 4.1 8.0----30.05- 68.7 73.9----
2026-09-01 12:18 pmSSE 4.1 8.9----30.06-- 73.9----
2026-09-01 12:12 pm SE 5.1 7.0----30.06-- 73.9----
2026-09-01 12:06 pm SE 5.1 7.0----30.07-- 73.9----
2026-09-01 12:00 pmSSE 4.1 7.0----30.07+0.01 68.7 73.9----
2026-09-01 11:54 amSSE 2.9 8.0----30.07- 68.7 73.9----
2026-09-01 11:48 am SE 5.1 7.0----30.07- 68.0 73.9----
2026-09-01 11:42 am SE 2.9 8.0----30.07- 68.0 73.9----
2026-09-01 11:36 am SE 5.1 6.0----30.07- 67.8 73.9----
2026-09-01 11:30 am SE 2.9 7.0----30.07- 67.5 73.9----
2026-09-01 11:24 amESE 4.1 7.0----30.07- 67.1 73.9----
2026-09-01 11:18 amESE 4.1 7.0----30.07-- 73.9----
2026-09-01 11:12 amESE 5.1 8.0----30.07-- 73.9----
2026-09-01 11:06 amESE 4.1 6.0----30.07-- 73.9----
2026-09-01 11:00 am SE 4.1 6.0----30.07+0.01 67.1 74.1----
2026-09-01 10:54 am SE 5.1 7.0----30.07- 66.9 74.1----
2026-09-01 10:48 am SE 2.9 6.0----30.06-- 74.1----
2026-09-01 10:42 amESE 4.1 8.0----30.06-- 73.9----
2026-09-01 10:36 amESE 5.1 7.0----30.06-- 73.9----
2026-09-01 10:30 amESE 4.1 8.0----30.06- 67.5 73.9----
2026-09-01 10:24 amESE 6.0 8.0----30.05- 67.5 73.9----
2026-09-01 10:18 am SE 6.0 8.0----30.05-- 73.9----
2026-09-01 10:12 am SE 6.0 9.9----30.05-- 73.9----
2026-09-01 10:06 am SE 6.0 7.0----30.06-- 73.9----
2026-09-01 10:00 am SE 5.1 7.0----30.06+0.02 67.8 73.9----
2026-09-01 09:54 amESE 4.1 8.0----30.06- 68.0 73.9----
2026-09-01 09:48 am SE 2.9 6.0----30.06- 68.2 73.9----
2026-09-01 09:42 am SE 1.9 7.0----30.06- 68.4 73.9----
2026-09-01 09:36 am SE 5.1 7.0----30.06- 68.4 73.9----
2026-09-01 09:30 am SE 5.1 7.0----30.06- 68.5 73.9----
2026-09-01 09:24 am SE 5.1 7.0----30.06- 68.7 73.9----
2026-09-01 09:18 am SE 5.1 7.0----30.06-- 73.9----
2026-09-01 09:12 amESE 4.1 6.0----30.06-- 73.9----
2026-09-01 09:06 amESE 4.1 6.0----30.06-- 73.9----
2026-09-01 09:00 am SE 4.1 6.0----30.06+0.03 68.4 73.9----
2026-09-01 08:54 am SE 5.1 7.0----30.06- 68.0 73.9----
2026-09-01 08:48 am SE 4.1 7.0----30.06-- 73.9----
2026-09-01 08:42 am SE 5.1 7.0----30.06-- 73.9----
2026-09-01 08:36 am SE 5.1 7.0----30.06-- 73.9----
2026-09-01 08:30 am SE 4.1 6.0----30.07- 68.0 73.9----
2026-09-01 08:24 am SE 4.1 6.0----30.07- 67.8 73.9----
2026-09-01 08:18 am SE 2.9 5.1----30.07-- 73.9----
2026-09-01 08:12 am SE 2.9 5.1----30.06-- 73.9----
2026-09-01 08:06 am SE 1.9 5.1----30.06-- 73.9----
2026-09-01 08:00 amSSE 1.9 6.0----30.06+0.00 67.6 73.9----
2026-09-01 07:54 am SE 4.1 5.1----30.06- 67.5 73.9----
2026-09-01 07:48 am SE 4.1 5.1----30.06- 67.1 73.9----
2026-09-01 07:42 am SE 2.9 5.1----30.06- 67.1 74.1----
2026-09-01 07:36 am SE 5.1 6.0----30.06- 66.9 74.1----
2026-09-01 07:30 am SE 4.1 5.1----30.06- 66.9 74.1----
2026-09-01 07:24 amSSE 2.9 5.1----30.06- 66.7 74.1----
2026-09-01 07:18 am SE 2.9 5.1----30.05-- 74.1----
2026-09-01 07:12 am S 4.1 6.0----30.05-- 74.1----
2026-09-01 07:06 am SE 4.1 6.0----30.05-- 74.1----
2026-09-01 07:00 am SE 5.1 6.0----30.04-0.01 66.4 74.1----
2026-09-01 06:54 amESE 2.9 5.1----30.04- 66.9 74.1----
2026-09-01 06:48 am SE 4.1 6.0----30.04- 66.9 74.1----
2026-09-01 06:42 am SE 4.1 5.1----30.05- 66.9 74.1----
2026-09-01 06:36 amSSE 1.9 4.1----30.05- 66.9 74.1----
2026-09-01 06:30 amSSE 2.9 5.1----30.04- 66.7 74.3----
2026-09-01 06:24 am SE 2.9 5.1----30.04- 66.9 74.3----
2026-09-01 06:18 amESE 2.9 5.1----30.04-- 74.3----
2026-09-01 06:12 amESE 2.9 4.1----30.04-- 74.3----
2026-09-01 06:06 am SE 1.9 2.9----30.04-- 74.3----
2026-09-01 06:00 am SE 1.9 2.9----30.03- 66.9 74.3----
2026-09-01 05:54 am SE 1.9 4.1----30.03- 66.7 74.3----
2026-09-01 05:48 am S 1.9 4.1----30.03- 66.7 74.3----
2026-09-01 05:42 amSSE 2.9 4.1----30.03- 66.7 74.3----
2026-09-01 05:36 am S 1.9 4.1----30.03- 66.7 74.3----
2026-09-01 05:30 am S 1.9 2.9----30.04- 66.9 74.3----
2026-09-01 05:24 amSSE 1.0 2.9----30.05- 66.9 74.3----
2026-09-01 05:18 am S 1.9 2.9----30.05-- 74.3----
2026-09-01 05:12 am S 1.0 1.9----30.05-- 74.3----
2026-09-01 05:06 am- 0.0 1.9----30.05-- 74.3----
2026-09-01 05:00 am- 0.0 1.9----30.05-0.02 66.9 74.3----
2026-09-01 04:54 amSSW 1.0 1.9----30.05- 66.9 74.3----
2026-09-01 04:48 am S 1.0 1.9----30.05-- 74.3----
2026-09-01 04:42 am S 1.9 2.9----30.05-- 74.3----
2026-09-01 04:36 am S 1.9 2.9----30.05-- 74.3----
2026-09-01 04:30 amSSE 1.9 1.9----30.05- 67.1 74.3----
2026-09-01 04:24 amSSE 1.0 1.9----30.06- 67.1 74.3----
2026-09-01 04:18 am S 1.9 2.9----30.06-- 74.3----
2026-09-01 04:12 amSSE 1.0 2.9----30.06-- 74.3----
2026-09-01 04:06 amSSE 1.9 2.9----30.06-- 74.3----
2026-09-01 04:00 am- 0.0 4.1----30.06-0.02 66.9 74.3----
2026-09-01 03:54 am S 1.9 4.1----30.06- 66.9 74.3----
2026-09-01 03:48 am S 1.9 5.1----30.06- 66.9 74.3----
2026-09-01 03:42 am S 4.1 5.1----30.06- 66.7 74.3----
2026-09-01 03:36 am S 2.9 5.1----30.06- 66.7 74.3----
2026-09-01 03:30 am S 1.9 4.1----30.06- 66.9 74.3----
2026-09-01 03:24 am S 4.1 5.1----30.06- 66.7 74.3----
2026-09-01 03:18 am S 1.9 4.1----30.07- 66.9 74.3----
2026-09-01 03:12 am S 1.9 4.1----30.06- 66.7 74.3----
2026-09-01 03:06 am S 1.9 4.1----30.07- 66.7 74.3----
2026-09-01 03:00 am S 2.9 4.1------ 66.7 74.3----
2026-09-01 02:54 am S 2.9 5.1------ 66.7 74.3----
2026-09-01 02:48 am S 1.9 4.1----30.07- 66.7 74.3----
2026-09-01 02:42 am S 2.9 4.1----30.07- 66.7 74.3----
2026-09-01 02:36 am S 2.9 4.1----30.07- 66.7 74.3----
2026-09-01 02:30 am S 1.9 5.1----30.07-- 74.3----
2026-09-01 02:24 am S 4.1 5.1----30.07-- 74.3----
2026-09-01 02:18 am S 2.9 5.1----30.07-- 74.3----
2026-09-01 02:12 am S 4.1 5.1----30.07-- 74.3----
2026-09-01 02:06 am S 2.9 5.1----30.07-- 74.3----
2026-09-01 02:00 am S 4.1 6.0----30.07-0.02 66.6 74.3----
2026-09-01 01:54 am S 4.1 6.0----30.07- 66.6 74.3----
2026-09-01 01:48 am S 2.9 5.1----30.07- 66.6 74.5----
2026-09-01 01:42 am S 2.9 5.1----30.07- 66.6 74.3----
2026-09-01 01:36 am S 4.1 6.0----30.07- 66.6 74.3----
2026-09-01 01:30 am S 4.1 6.0----30.08- 66.6 74.3----
2026-09-01 01:24 am S 1.9 5.1----30.08- 66.6 74.3----
2026-09-01 01:18 am S 4.1 6.0----30.08-- 74.3----
2026-09-01 01:12 am S 5.1 6.0----30.08-- 74.5----
2026-09-01 01:06 am S 4.1 6.0----30.08-- 74.5----
2026-09-01 01:00 am S 4.1 7.0----30.08-0.01 66.6 74.3----
2026-09-01 12:54 am S 4.1 5.1----30.09- 66.6 74.3----
2026-09-01 12:48 am S 1.9 5.1----30.09- 66.7 74.5----
2026-09-01 12:42 am S 4.1 5.1----30.09- 66.7 74.3----
2026-09-01 12:36 am S 1.9 5.1----30.09- 66.7 74.5----
2026-09-01 12:30 am S 1.9 5.1----30.09- 66.7 74.5----
2026-09-01 12:24 am S 2.9 5.1----30.09- 66.7 74.5----
2026-09-01 12:18 am S 2.9 5.1----30.09-- 74.5----
2026-09-01 12:12 am S 2.9 5.1----30.09-- 74.5----
2026-09-01 12:06 am S 1.9 4.1----30.08-- 74.5----
2026-09-01 12:00 am S 1.9 6.0----30.08-0.02 66.7 74.5----
2026-08-31 11:54 pm S 4.1 6.0----30.08- 66.6 74.5----
2026-08-31 11:48 pm S 5.1 5.1----30.08-- 74.5----
2026-08-31 11:42 pm S 2.9 7.0----30.08-- 74.5----
2026-08-31 11:36 pm S 4.1 6.0----30.09-- 74.5----
2026-08-31 11:30 pm S 2.9 7.0----30.09- 66.6 74.5----
2026-08-31 11:24 pm S 2.9 5.1----30.09- 66.6 74.7----
2026-08-31 11:18 pm S 4.1 7.0------- 74.7----
2026-08-31 11:12 pm S 4.1 5.1------- 74.7----
2026-08-31 11:06 pm S 4.1 5.1------- 74.7----
2026-08-31 11:00 pm S 2.9 5.1----30.09+0.00 66.6 74.7----
2026-08-31 10:54 pm S 2.9 5.1----30.09- 66.6 74.7----
2026-08-31 10:48 pm S 2.9 6.0----30.09- 66.6 74.7----
2026-08-31 10:42 pm S 4.1 5.1----30.09- 66.6 74.7----
2026-08-31 10:36 pm S 2.9 6.0----30.09- 66.6 74.7----
2026-08-31 10:30 pm S 2.9 6.0----30.09- 66.6 74.8----
2026-08-31 10:24 pm S 4.1 7.0----30.09- 66.6 74.8----
2026-08-31 10:18 pm S 4.1 7.0----30.09-- 74.8----
2026-08-31 10:12 pm S 2.9 6.0----30.09-- 74.8----
2026-08-31 10:06 pmSSE 1.9 6.0----30.09-- 74.8----
2026-08-31 10:00 pmSSE 4.1 5.1----30.09-0.01 66.6 74.8----
2026-08-31 09:54 pmSSE 2.9 5.1----30.09- 66.6 74.8----
2026-08-31 09:48 pmSSE 1.9 5.1----30.09- 66.6 75.0----
2026-08-31 09:42 pm S 4.1 6.0----30.09- 66.6 75.0----
2026-08-31 09:36 pm S 4.1 8.0----30.09- 66.6 75.0----
2026-08-31 09:30 pm S 5.1 7.0----30.10- 66.4 75.0----
2026-08-31 09:24 pm S 1.9 6.0----30.10- 66.2 75.0----
2026-08-31 09:18 pm S 4.1 5.1----30.10-- 75.0----
2026-08-31 09:12 pm S 2.9 5.1----30.10-- 75.2----
2026-08-31 09:06 pm S 2.9 5.1----30.10-- 75.2----
2026-08-31 09:00 pmSSE 2.9 6.0----30.10-0.01 66.0 75.2----
2026-08-31 08:54 pm S 1.9 6.0----30.10- 66.0 75.4----
2026-08-31 08:48 pmSSE 1.9 5.1----30.11-- 75.4----
2026-08-31 08:42 pmSSE 2.9 5.1----30.11-- 75.4----
2026-08-31 08:36 pm S 2.9 5.1----30.11-- 75.4----
2026-08-31 08:30 pm S 2.9 5.1----30.11- 65.8 75.4----
2026-08-31 08:24 pmSSE 2.9 4.1----30.10- 65.8 75.6----
2026-08-31 08:18 pm S 4.1 5.1----30.10-- 75.6----
2026-08-31 08:12 pm S 1.9 5.1----30.10-- 75.6----
2026-08-31 08:06 pmSSE 2.9 5.1----30.10-- 75.6----
2026-08-31 08:00 pmSSE 2.9 4.1----30.10-0.01 65.8 75.6----
2026-08-31 07:54 pm SE 2.9 4.1----30.10- 66.0 75.6----